Terminal Aerodrome Forecast
Issued by NWS St Louis, MO

Home | Current Version | Previous Version | Text Only | Print | Product List | Glossary On
Versions: 1 2 3 4 5 6 7 8 9 10 11 12 13 14 15 16 17 18 19 20 21 22 23 24 25 26 27 28 29 30 31
000
FTUS43 KLSX 211400 AAA
TAFSTL
TAF AMD
KSTL 211457Z 2115/2218 12010KT P6SM SKC
     FM212000 13011KT P6SM OVC040
     FM220000 16010KT P6SM -SHRA OVC025
     FM220500 18011KT P6SM SCT015 OVC040
     FM221400 19013KT 4SM -SHRA SCT025 OVC035=

USA.gov is the U.S. government's official web portal to all federal, state and local government web resources and services.